| time (UTC) | temp C | wind direction | speed KPH | gust KPH | rain 1hr cm | rain 24hr cm | rain mn cm | humidity % | barometer mb |
| 20260906132018 | 22 | 0 | 0.0 | 0.0 | 0.00 | 0.76 | 0.00 | 95 | 990.3 |
| 20260906125825 | 22 | 0 | 0.0 | 0.0 | 0.00 | 0.76 | 0.00 | 95 | 990.4 |
| 20260906124332 | 22 | 0 | 0.0 | 0.0 | 0.00 | 0.76 | 0.00 | 95 | 990.3 |
| 20260906122825 | 22 | 0 | 0.0 | 0.0 | 0.00 | 0.76 | 0.00 | 95 | 990.0 |
| 20260906121325 | 22 | 0 | 0.0 | 0.0 | 0.00 | 0.76 | 0.00 | 95 | 990.1 |
| 20260906115824 | 22 | 0 | 0.0 | 0.0 | 0.00 | 0.76 | 0.00 | 95 | 989.9 |
| 20260906114322 | 21 | 0 | 0.0 | 0.0 | 0.00 | 0.76 | 0.00 | 95 | 989.9 |
| 20260906112819 | 21 | 0 | 0.0 | 0.0 | 0.00 | 0.76 | 0.00 | 95 | 989.9 |
| 20260906111317 | 21 | 0 | 0.0 | 0.0 | 0.00 | 0.76 | 0.00 | 95 | 989.8 |
| 20260906105816 | 21 | 0 | 0.0 | 0.0 | 0.00 | 0.76 | 0.00 | 95 | 989.5 |
| 20260906104315 | 21 | 0 | 0.0 | 0.0 | 0.00 | 0.76 | 0.00 | 95 | 989.3 |
| 20260906102813 | 21 | 0 | 0.0 | 0.0 | 0.00 | 0.76 | 0.00 | 95 | 989.2 |
| 20260906101311 | 21 | 0 | 0.0 | 0.0 | 0.00 | 0.76 | 0.00 | 95 | 989.2 |
| 20260906095809 | 21 | 0 | 0.0 | 0.0 | 0.00 | 0.76 | 0.00 | 95 | 988.9 |
| 20260906095002 | 21 | 0 | 0.0 | 0.0 | 0.00 | 0.76 | 0.00 | 95 | 988.7 |
| 20260906092809 | 21 | 0 | 0.0 | 0.0 | 0.00 | 0.76 | 0.00 | 95 | 988.5 |
| 20260906091309 | 21 | 0 | 0.0 | 0.0 | 0.00 | 0.76 | 0.00 | 95 | 988.2 |
| 20260906085807 | 21 | 0 | 0.0 | 0.0 | 0.00 | 0.76 | 0.00 | 95 | 988.0 |
| 20260906084303 | 21 | 0 | 0.0 | 0.0 | 0.00 | 0.76 | 0.00 | 95 | 988.1 |
| 20260906084209 | 22 | 0 | 0.0 | 0.0 | 0.00 | 0.76 | 0.00 | 95 | 988.1 |
| 20260906081303 | 22 | 0 | 0.0 | 0.0 | 0.00 | 0.76 | 0.00 | 95 | 988.2 |
| 20260906080509 | 22 | 0 | 0.0 | 0.0 | 0.00 | 0.76 | 0.00 | 95 | 988.1 |
| 20260906074301 | 22 | 0 | 0.0 | 0.0 | 0.00 | 0.76 | 0.00 | 95 | 987.8 |
| 20260906072801 | 22 | 0 | 0.0 | 0.0 | 0.00 | 0.76 | 0.00 | 95 | 987.9 |
| 20260906072005 | 22 | 0 | 0.0 | 0.0 | 0.00 | 0.76 | 0.00 | 95 | 987.8 |
| 20260906065804 | 22 | 0 | 0.0 | 0.0 | 0.00 | 0.76 | 0.00 | 95 | 987.9 |
| 20260906064305 | 22 | 0 | 0.0 | 0.0 | 0.00 | 0.76 | 0.00 | 95 | 988.0 |
| 20260906062756 | 22 | 0 | 0.0 | 0.0 | 0.00 | 0.76 | 0.00 | 95 | 988.0 |
| 20260906061254 | 22 | 0 | 0.0 | 0.0 | 0.00 | 0.76 | 0.00 | 95 | 988.0 |
| 20260906055753 | 22 | 0 | 0.0 | 0.0 | 0.00 | 0.76 | 0.00 | 95 | 988.0 |
| 20260906054253 | 22 | 0 | 0.0 | 0.0 | 0.00 | 0.76 | 0.00 | 95 | 988.2 |
| 20260906053443 | 22 | 0 | 0.0 | 0.0 | 0.00 | 0.76 | 0.00 | 95 | 988.4 |
| 20260906051250 | 23 | 0 | 0.0 | 0.0 | 0.00 | 0.76 | 0.00 | 95 | 988.6 |
| 20260906045751 | 23 | 0 | 0.0 | 0.0 | 0.00 | 0.76 | 0.00 | 95 | 988.4 |
| 20260906044250 | 23 | 0 | 0.0 | 0.0 | 0.00 | 0.76 | 0.00 | 95 | 988.5 |
| 20260906042749 | 23 | 0 | 0.0 | 0.0 | 0.00 | 0.76 | 0.00 | 95 | 988.6 |
| 20260906041250 | 23 | 0 | 0.0 | 0.0 | 0.00 | 0.76 | 0.00 | 95 | 988.6 |
| 20260906035746 | 23 | 0 | 0.0 | 0.0 | 0.00 | 0.76 | 0.76 | 95 | 988.7 |
| 20260906034245 | 23 | 0 | 0.0 | 0.0 | 0.00 | 0.76 | 0.76 | 95 | 988.6 |
| 20260906033436 | 23 | 0 | 0.0 | 0.0 | 0.00 | 0.76 | 0.76 | 95 | 988.7 |
| 20260906031949 | 23 | 0 | 0.0 | 0.0 | 0.00 | 0.76 | 0.76 | 95 | 988.7 |
| 20260906030441 | 23 | 0 | 0.0 | 0.0 | 0.00 | 0.76 | 0.76 | 95 | 988.9 |
| 20260906024239 | 24 | 0 | 0.0 | 0.0 | 0.00 | 0.76 | 0.76 | 95 | 988.9 |
| 20260906022739 | 24 | 0 | 0.0 | 0.0 | 0.00 | 0.76 | 0.76 | 95 | 988.7 |
| 20260906021236 | 24 | 0 | 0.0 | 0.0 | 0.00 | 0.76 | 0.76 | 95 | 988.5 |
| 20260906015734 | 24 | 0 | 0.0 | 0.0 | 0.00 | 0.76 | 0.76 | 95 | 988.4 |
| 20260906014232 | 24 | 0 | 0.0 | 0.0 | 0.00 | 0.76 | 0.76 | 95 | 988.6 |
| 20260906013415 | 24 | 0 | 0.0 | 0.0 | 0.00 | 0.76 | 0.76 | 95 | 988.5 |
| 20260906011926 | 24 | 0 | 0.0 | 0.0 | 0.00 | 0.76 | 0.76 | 95 | 988.5 |
| 20260906005723 | 24 | 0 | 0.0 | 0.0 | 0.00 | 0.76 | 0.76 | 95 | 988.4 |
| 20260906004220 | 24 | 0 | 0.0 | 0.0 | 0.00 | 0.76 | 0.76 | 95 | 988.1 |
| 20260906002719 | 25 | 0 | 0.0 | 0.0 | 0.00 | 0.76 | 0.76 | 95 | 987.9 |
| 20260906001914 | 25 | 0 | 0.0 | 0.0 | 0.00 | 0.76 | 0.76 | 95 | 987.6 |
| 20260905235717 | 25 | 0 | 0.0 | 0.0 | 0.00 | 0.76 | 0.76 | 95 | 987.4 |
| 20260905234928 | 25 | 0 | 0.0 | 0.0 | 0.00 | 0.76 | 0.76 | 95 | 987.3 |
| 20260905233417 | 25 | 0 | 0.0 | 0.0 | 0.00 | 0.76 | 0.76 | 95 | 987.1 |
| 20260905231215 | 25 | 0 | 0.0 | 0.0 | 0.00 | 0.76 | 0.76 | 95 | 987.0 |
| 20260905225713 | 25 | 0 | 0.0 | 0.0 | 0.00 | 0.76 | 0.76 | 95 | 986.7 |
| 20260905224213 | 25 | 0 | 0.0 | 0.0 | 0.00 | 0.76 | 0.76 | 95 | 986.7 |
| 20260905222711 | 25 | 0 | 0.0 | 0.0 | 0.00 | 0.76 | 0.76 | 95 | 986.9 |
| 20260905221211 | 25 | 0 | 0.0 | 0.0 | 0.00 | 0.76 | 0.76 | 95 | 986.9 |
| 20260905215711 | 25 | 0 | 0.0 | 0.0 | 0.00 | 0.76 | 0.76 | 95 | 986.8 |
| 20260905214211 | 25 | 0 | 0.0 | 0.0 | 0.00 | 0.76 | 0.76 | 95 | 986.8 |
| 20260905212711 | 24 | 0 | 0.0 | 0.0 | 0.00 | 0.76 | 0.76 | 95 | 986.4 |
| 20260905212548 | 24 | 0 | 0.0 | 0.0 | 0.00 | 0.76 | 0.76 | 95 | 986.4 |
| 20260905205711 | 24 | 0 | 0.0 | 0.0 | 0.00 | 0.76 | 0.76 | 95 | 986.5 |
| 20260905204211 | 24 | 0 | 0.0 | 0.0 | 0.00 | 0.76 | 0.76 | 95 | 986.6 |
| 20260905202709 | 24 | 0 | 0.0 | 0.0 | 0.00 | 0.76 | 0.76 | 95 | 986.3 |
| 20260905201207 | 24 | 0 | 0.0 | 0.0 | 0.03 | 0.76 | 0.76 | 95 | 986.4 |
| 20260905200404 | 23 | 0 | 0.0 | 0.0 | 0.03 | 0.76 | 0.76 | 95 | 987.4 |
| 20260905194207 | 25 | 0 | 0.0 | 0.0 | 0.76 | 0.76 | 0.76 | 95 | 987.2 |
| 20260905192705 | 25 | 0 | 0.0 | 0.0 | 0.76 | 0.76 | 0.76 | 94 | 987.8 |
| 20260905191204 | 25 | 0 | 0.0 | 0.0 | 0.74 | 0.74 | 0.74 | 93 | 987.2 |
| 20260905185705 | 27 | 0 | 0.0 | 0.0 | 0.74 | 0.74 | 0.74 | 80 | 987.5 |
| 20260905184205 | 33 | 0 | 0.0 | 0.0 | 0.00 | 0.00 | 0.00 | 57 | 987.5 |
| 20260905182704 | 36 | 0 | 0.0 | 0.0 | 0.00 | 0.00 | 0.00 | 54 | 986.8 |
| 20260905181203 | 36 | 0 | 0.0 | 0.0 | 0.00 | 0.00 | 0.00 | 52 | 986.4 |
| 20260905175702 | 36 | 0 | 0.0 | 0.0 | 0.00 | 0.00 | 0.00 | 52 | 986.8 |
| 20260905174159 | 37 | 0 | 0.0 | 0.0 | 0.00 | 0.00 | 0.00 | 55 | 987.1 |
| 20260905172658 | 36 | 0 | 0.0 | 0.0 | 0.00 | 0.00 | 0.00 | 51 | 987.8 |
| 20260905171857 | 37 | 0 | 0.0 | 0.0 | 0.00 | 0.00 | 0.00 | 53 | 988.0 |
| 20260905165656 | 36 | 0 | 0.0 | 0.0 | 0.00 | 0.00 | 0.00 | 56 | 988.2 |
| 20260905164155 | 36 | 0 | 0.0 | 0.0 | 0.00 | 0.00 | 0.00 | 54 | 988.4 |
| 20260905162655 | 35 | 0 | 0.0 | 0.0 | 0.00 | 0.00 | 0.00 | 56 | 988.6 |
| 20260905161152 | 35 | 0 | 0.0 | 0.0 | 0.00 | 0.00 | 0.00 | 60 | 988.9 |
| 20260905161033 | 35 | 0 | 0.0 | 0.0 | 0.00 | 0.00 | 0.00 | 58 | 989.0 |
| 20260905154142 | 34 | 0 | 0.0 | 0.0 | 0.00 | 0.00 | 0.00 | 60 | 989.1 |
| 20260905153337 | 33 | 0 | 0.0 | 0.0 | 0.00 | 0.00 | 0.00 | 64 | 989.3 |
| 20260905151138 | 32 | 0 | 0.0 | 0.0 | 0.00 | 0.00 | 0.00 | 66 | 989.4 |
| 20260905145638 | 32 | 0 | 0.0 | 0.0 | 0.00 | 0.00 | 0.00 | 70 | 989.4 |
| 20260905144138 | 31 | 0 | 0.0 | 0.0 | 0.00 | 0.00 | 0.00 | 73 | 989.4 |
| 20260905142636 | 30 | 0 | 0.0 | 0.0 | 0.00 | 0.00 | 0.00 | 75 | 989.4 |
| 20260905141134 | 29 | 0 | 0.0 | 0.0 | 0.00 | 0.00 | 0.00 | 78 | 989.3 |
| 20260905135634 | 27 | 0 | 0.0 | 0.0 | 0.00 | 0.00 | 0.00 | 83 | 989.2 |
| 20260905134846 | 26 | 0 | 0.0 | 0.0 | 0.00 | 0.00 | 0.00 | 89 | 989.1 |
| 20260905132631 | 25 | 0 | 0.0 | 0.0 | 0.00 | 0.00 | 0.00 | 92 | 989.1 |